Location: Heilbronn
(49.1548°N, 9.2780°E)
Time: 13:10:13
(UTC+02:00)

ISS - Pass Details

Date: 11 February 2018
Orbit: 403 x 408 km, 51.6° (Epoch: 22 September)

Event Time Altitude Azimuth Distance (km) Brightness Sun altitude
Rises 19:27:36 0° 281° (W) 2,322 1.6 -18.7°
Reaches altitude 10° 19:30:40 10° 249° (WSW) 1,460 0.0 -19.2°
Maximum altitude 19:32:02 12° 224° (SW) 1,334 -0.7 -19.4°
Drops below altitude 10° 19:33:26 10° 199° (SSW) 1,459 -0.8 -19.6°
Enters shadow 19:35:00 - 179° (S) 1,839 -0.5 -19.9°
